Monterey, CA

4:33 AM PST on December 11, 2016 (GMT -0800)
Monterey Peninsula

Weather History for KMRY - May, 2012

Change the Weather History Date:

Saturday, May 19, 2012

  Actual Average Record
Temperature  
Mean Temperature 55 °F 57 °F  
Max Temperature 60 °F 64 °F 73 °F (2005)
Min Temperature 49 °F 50 °F 44 °F (2003)
Degree Days  
Heating Degree Days 10    
Month to date heating degree days 164  
Since 1 July heating degree days 2968  
Cooling Degree Days 0    
Month to date cooling degree days 0  
Year to date cooling degree days 0  
Growing Degree Days 4 (Base 50)    
Moisture  
Dew Point 45 °F    
Average Humidity 73    
Maximum Humidity 86    
Minimum Humidity 60    
Precipitation  
Precipitation 0.00 in - 0.04 in (2014)
Month to date precipitation 0.08  
Year to date precipitation 7.28  
Since 1 July precipitation 11.08  
Sea Level Pressure  
Sea Level Pressure 30.02 in    
Wind  
Wind Speed 8 mph (SW)    
Max Wind Speed 15 mph    
Max Gust Speed 18 mph    
Visibility 8 miles    
Events      
T = Trace of Precipitation, MM = Missing Value Source: NWS Daily Summary

Daily Weather History Graph

Daily Weather History Graph

Search for Another Location

Airport or City:

Trip Planner

Search our weather history database for the weather conditions in past years. The results will help you decide how hot, cold, wet, or windy it might be!

Date:

Astronomy

May. 19, 2012 Rise Set
Actual Time 5:56 AM PDT 8:11 PM PDT
Civil Twilight 5:27 AM PDT 8:40 PM PDT
Nautical Twilight 4:51 AM PDT 9:16 PM PDT
Astronomical Twilight 4:13 AM PDT 9:55 PM PDT
Moon 5:01 AM PDT (5/19) 7:21 PM PDT (5/19)
Length of Visible Light 15h 12m
Length of Day
14h 14m
Waning Crescent, 1% of the Moon is Illuminated
May 19
Waning Crescent
May 20
New
May 28
First Quarter
Jun 4
Full
Jun 11
Last Quarter

Hourly Weather History & Observations

Time (PDT) Temp. Dew Point Humidity Pressure Visibility Wind Dir Wind Speed Gust Speed Precip Events Conditions
12:07 AM 50.0 °F 44.6 °F 82% 30.00 in 8.0 mi South 5.8 mph - N/A   Scattered Clouds
12:34 AM 50.0 °F 44.6 °F 82% 30.00 in 8.0 mi SSW 6.9 mph - N/A   Mostly Cloudy
12:54 AM 50.0 °F 43.0 °F 77% 30.04 in 8.0 mi South 6.9 mph - N/A   Mostly Cloudy
1:06 AM 50.0 °F 42.8 °F 76% 30.00 in 8.0 mi South 5.8 mph - N/A   Partly Cloudy
1:54 AM 50.0 °F 43.0 °F 77% 30.02 in 9.0 mi South 5.8 mph - N/A   Clear
2:33 AM 50.0 °F 42.8 °F 76% 29.98 in 8.0 mi South 5.8 mph - N/A   Mostly Cloudy
2:54 AM 50.0 °F 43.0 °F 77% 30.02 in 8.0 mi South 5.8 mph - N/A   Overcast
3:26 AM 50.0 °F 44.6 °F 82% 29.98 in 8.0 mi South 6.9 mph - N/A   Overcast
3:39 AM 50.0 °F 44.6 °F 82% 29.98 in 8.0 mi SSW 5.8 mph - N/A   Overcast
3:54 AM 50.0 °F 44.1 °F 80% 30.02 in 8.0 mi SSW 5.8 mph - N/A   Overcast
4:54 AM 48.9 °F 44.1 °F 83% 30.02 in 8.0 mi South 5.8 mph - N/A   Overcast
5:39 AM 48.2 °F 44.6 °F 87% 29.98 in 8.0 mi South 5.8 mph - N/A   Scattered Clouds
5:54 AM 48.9 °F 43.0 °F 80% 30.02 in 7.0 mi SSW 5.8 mph - N/A   Scattered Clouds
6:54 AM 50.0 °F 44.1 °F 80% 30.04 in 6.0 mi SSW 6.9 mph - N/A   Haze
7:06 AM 51.8 °F 44.6 °F 76% 30.00 in 7.0 mi South 4.6 mph - N/A   Mostly Cloudy
7:54 AM 52.0 °F 45.0 °F 77% 30.04 in 7.0 mi SW 4.6 mph - N/A   Mostly Cloudy
8:31 AM 53.6 °F 44.6 °F 72% 30.01 in 7.0 mi WNW 6.9 mph - N/A   Scattered Clouds
8:54 AM 54.0 °F 46.0 °F 75% 30.05 in 7.0 mi WNW 8.1 mph - N/A   Scattered Clouds
9:54 AM 55.9 °F 45.0 °F 67% 30.05 in 8.0 mi WNW 5.8 mph - N/A   Partly Cloudy
10:54 AM 55.9 °F 46.0 °F 69% 30.06 in 8.0 mi West 9.2 mph - N/A   Clear
11:54 AM 55.9 °F 46.0 °F 69% 30.06 in 8.0 mi WNW 11.5 mph - N/A   Clear
12:54 PM 57.9 °F 46.9 °F 67% 30.06 in 8.0 mi WNW 10.4 mph - N/A   Clear
1:54 PM 60.1 °F 46.9 °F 62% 30.05 in 8.0 mi WNW 12.7 mph - N/A   Clear
2:54 PM 60.1 °F 46.9 °F 62% 30.04 in 8.0 mi West 12.7 mph - N/A   Clear
3:54 PM 59.0 °F 46.9 °F 64% 30.03 in 9.0 mi WNW 13.8 mph - N/A   Clear
4:54 PM 60.1 °F 46.9 °F 62% 30.03 in 9.0 mi West 10.4 mph - N/A   Clear
5:54 PM 59.0 °F 46.0 °F 62% 30.02 in 9.0 mi West 9.2 mph - N/A   Clear
6:54 PM 57.0 °F 46.0 °F 67% 30.02 in 9.0 mi West 6.9 mph - N/A   Clear
7:54 PM 57.0 °F 45.0 °F 64% 30.01 in 10.0 mi SSW 4.6 mph - N/A   Clear
8:54 PM 55.0 °F 45.0 °F 69% 30.02 in 10.0 mi SW 8.1 mph - N/A   Clear
9:54 PM 54.0 °F 45.0 °F 72% 30.04 in 10.0 mi SSW 8.1 mph - N/A   Clear
10:54 PM 53.1 °F 44.1 °F 71% 30.05 in 10.0 mi SSW 3.5 mph - N/A   Clear
11:54 PM 52.0 °F 44.1 °F 74% 30.05 in 10.0 mi South 4.6 mph - N/A   Clear